Regional Weather Roundup
Issued by NWS Binghamton, NY

Home | Current Version | Previous Version | Text Only | Print | Product List | Glossary On
Versions: 1 2 3 4 5 6 7 8 9 10 11 12 13 14 15 16 17 18 19 20 21 22 23 24 25 26 27 28
000
ASUS41 KBGM 210410
RWRBGM

REGIONAL WEATHER ROUNDUP
NATIONAL WEATHER SERVICE BINGHAMTON NY
1200 AM EDT SAT OCT 21 2017

Note: "fair" indicates few or no clouds below 12,000 feet with no
significant weather and/or obstructions to visibility.

* = Station(s) that does not report precipitation, such as rain,
snow, etc, also no thunder or fog.

NYZ009-015>018-022>025-036-037-044>046-055>057-062-210500
...Central New York...

CITY           SKY/WX    TMP DP  RH WIND       PRES   REMARKS
Binghamton     CLOUDY    52  32  46 S3        30.24R
Cortland       FAIR      41  37  87 N3        30.25R
Dansville      CLOUDY    47  39  74 SE9       30.23S
Elmira         CLEAR     42  38  85 CALM      30.25R
Seneca Falls   CLEAR     50  41  71 S6        30.22S
Ithaca         CLEAR     45  38  76 E7        30.24R
Hamilton       CLEAR     37  36  93 CALM      30.24S
Hornell        CLEAR     43  37  81 S5        30.28S
Monticello     CLEAR     47  34  60 W3        30.26S
Oneonta        CLEAR     48 N/A N/A CALM      30.25R
Penn Yan       CLOUDY    44  39  82 CALM      30.22R
Rome           CLEAR     42  38  85 CALM      30.24R
Sidney         CLEAR     39  39 100 CALM      30.27R
Syracuse       PTCLDY    48  39  71 E6        30.21R
$$

PAZ038>040-043-044-047-048-072-210500
...Northeast Pennsylvania...

CITY           SKY/WX    TMP DP  RH WIND       PRES   REMARKS
Hazleton       CLEAR     39  28  65 CALM      30.29R
Scranton       CLEAR     50  36  58 E8        30.25S
$$
&&
KEY
WCI = Wind Chill Index
VSB = Visibility
HX  = Heat Index
$$




USA.gov is the U.S. government's official web portal to all federal, state and local government web resources and services.